This is the latest recevied weather packets stored in our database for station/object W6JCZ-13. If no packets are shown the sender has not sent any weather packets the latest 10 day(s).
| Time | Temp. | Humidity | Pressure | Rain* | Wind** | Luminosity | Snow |
|---|---|---|---|---|---|---|---|
| 1778019316 | 21.11° C | 66% | 1013.2 hPa | 0 mm | - | - | - |
| 1778018716 | 20.56° C | 66% | 1013.3 hPa | 0 mm | - | - | - |
| 1778018116 | 18.89° C | 67% | 1013.4 hPa | 0 mm | - | - | - |
| 1778017516 | 18.89° C | 68% | 1013.5 hPa | 0 mm | - | - | - |
| 1778016916 | 18.89° C | 70% | 1013.5 hPa | 0 mm | - | - | - |
| 1778016316 | 18.89° C | 69% | 1013.6 hPa | 0 mm | - | - | - |
| 1778015715 | 18.89° C | 69% | 1013.7 hPa | 0 mm | - | - | - |
| 1778015116 | 18.33° C | 69% | 1013.8 hPa | 0 mm | - | - | - |
| 1778014516 | 18.89° C | 70% | 1013.7 hPa | 0 mm | - | - | - |
| 1778013916 | 18.89° C | 70% | 1013.8 hPa | 0 mm | - | - | - |
| 1778012716 | 18.89° C | 69% | 1013.7 hPa | 0 mm | - | - | - |
| 1778012116 | 17.78° C | 71% | 1014 hPa | 0 mm | - | - | - |
| 1778011516 | 17.78° C | 71% | 1014.1 hPa | 0 mm | - | - | - |
| 1778010916 | 17.78° C | 70% | 1014 hPa | 0 mm | - | - | - |
| 1778010316 | 17.78° C | 74% | 1014 hPa | 0 mm | - | - | - |
| 1778009716 | 16.67° C | 76% | 1014.1 hPa | 0 mm | - | - | - |
| 1778009115 | 16.67° C | 75% | 1014.2 hPa | 0 mm | - | - | - |
| 1778008516 | 16.67° C | 76% | 1014.2 hPa | 0 mm | - | - | - |
| 1778007916 | 16.67° C | 77% | 1014.1 hPa | 0 mm | - | - | - |
| 1778007316 | 16.67° C | 78% | 1014.2 hPa | 0 mm | - | - | - |
| 1778006716 | 15.56° C | 81% | 1014.1 hPa | 0 mm | - | - | - |
| 1778006118 | 15.56° C | 80% | 1014.1 hPa | 0 mm | - | - | - |
| 1778005517 | 15° C | 82% | 1014 hPa | 0 mm | - | - | - |
| 1778004918 | 15° C | 83% | 1014 hPa | 0 mm | - | - | - |
| 1778004318 | 15° C | 82% | 1013.8 hPa | 0 mm | - | - | - |
* Rain latest hour (hover to see other rain measurements)
** Current wind speed in m/s (hover to see current wind gust speed)